Regional Weather Roundup
Issued by NWS

Home | Current Version | Previous Version | Text Only | Print | Product List | Glossary Off
Versions: 1 2 3 4 5 6 7 8 9 10 11 12 13 14 15 16 17 18 19 20 21 22 23 24 25 26 27 28 29 30 31 32 33 34 35 36 37 38 39 40 41 42 43 44 45 46 47 48 49 50

000
ASUS44 KMEG 030110
RWRTN
TENNESSEE HOURLY STATE WEATHER ROUNDUP
NATIONAL WEATHER SERVICE MEMPHIS TN
700 PM CST MON MAR 02 2015

TNZ002-004-019-021-049-052-054-088>092-030200-
WEST TENNESSEE

CITY           SKY/WX    TMP DP  RH WIND       PRES   REMARKS
MEMPHIS INTL   CLOUDY    41  36  82 E9        30.28F
NWS MEMPHIS      N/A     41 N/A N/A MISG        N/A
JACKSON        CLOUDY    45  31  58 N3        30.30F
DYERSBURG      CLOUDY    37  18  44 NE7       30.31F WCI  32
UNION CITY     CLOUDY    37  25  60 NE8       30.30F WCI  31
PARIS          CLOUDY    37  25  60 NE7       30.32S WCI  32
LEXINGTON      CLOUDY    46  28  49 NE5       30.29S
SAVANNAH       CLOUDY    45  39  81 CALM      30.30F
$$

TNZ008-025-027-028-033-062-065-066-030200-
NORTH MIDDLE TENNESSEE

CITY           SKY/WX    TMP DP  RH WIND       PRES   REMARKS
NASHVILLE      CLOUDY    46  31  55 E6        30.31F
CLARKSVILLE    CLOUDY    42  27  55 NE5       30.33S
SMYRNA         CLOUDY    46  32  58 NE3       30.33S
COOKEVILLE       N/A     43  34  70 NE5       30.29F
CROSSVILLE     CLOUDY    41  31  67 CALM      30.30F
$$

TNZ061-075-076-078-094-096-097-030200-
SOUTH MIDDLE TENNESSEE

CITY           SKY/WX    TMP DP  RH WIND       PRES   REMARKS
FAYETTEVILLE   CLOUDY    41  36  81 NE8         N/A
TULLAHOMA      CLOUDY    41  34  75 E3        30.30F
WINCHESTER     CLOUDY    43  37  81 N3        30.30S
MCMINNVILLE    CLOUDY    43  36  75 CALM      30.30S
COLUMBIA         N/A     45  37  76 E3        30.29F
SHELBYVILLE    CLOUDY    45  36  70 CALM      30.31S
$$

TNZ017-018-042-046-047-030200-
NORTHEAST TENNESSEE

CITY           SKY/WX    TMP DP  RH WIND       PRES   REMARKS
TRI CITIES     PTCLDY    36  29  75 CALM      30.33F
ELIZABETHTON   CLEAR     34  28  80 CALM      30.33S
$$

TNZ012-013-036-069-073-074-030200-
CENTRAL EAST TENNESSEE

CITY           SKY/WX    TMP DP  RH WIND       PRES   REMARKS
KNOXVILLE      PTCLDY    41  36  82 E3        30.32
OAK RIDGE      CLEAR     44  30  57 CALM      30.34R
GATLINBURG     CLEAR     39  36  87 CALM      30.31F
MORRISTOWN     CLEAR     39  36  87 E5        30.32F
$$

TNZ083-085-099-030200-
SOUTHEAST TENNESSEE

CITY           SKY/WX    TMP DP  RH WIND       PRES   REMARKS
CHATTANOOGA    LGT RAIN  49  38  65 N10       30.32R
$$

SKY/WX REPORTED AS FAIR MEANS FEW OR NO CLOUDS BELOW
12 THOUSAND FEET.




USA.gov is the U.S. government's official web portal to all federal, state and local government web resources and services.